OBJECT_NAME,OBJECT_ID,EPOCH,MEAN_MOTION,ECCENTRICITY,INCLINATION,RA_OF_ASC_NODE,ARG_OF_PERICENTER,MEAN_ANOMALY,EPHEMERIS_TYPE,CLASSIFICATION_TYPE,NORAD_CAT_ID,ELEMENT_SET_NO,REV_AT_EPOCH,BSTAR,MEAN_MOTION_DOT,MEAN_MOTION_DDOT IRIDIUM 33,1997-051C,2026-09-12T02:19:27.324192,14.35176495,.0009468,86.3881,313.4923,52.6963,307.5095,0,U,24946,999,51755,.50159E-4,.163E-5,0 IRIDIUM 33 DEB,1997-051L,2026-09-12T02:30:23.821632,14.43759530,.0009909,86.4000,304.7294,339.7807,20.3000,0,U,33773,999,92291,.14729E-3,.521E-5,0 IRIDIUM 33 DEB,1997-051N,2026-09-12T03:09:56.172096,14.42185969,.0011615,86.3601,292.7792,350.0829,27.9239,0,U,33775,999,92080,.20513E-3,.695E-5,0 IRIDIUM 33 DEB,1997-051P,2026-09-12T04:20:22.193088,14.38627254,.0015119,86.4073,325.9184,28.3895,0.9752,0,U,33776,999,92013,.12259E-3,.396E-5,0 IRIDIUM 33 DEB,1997-051Q,2026-09-12T01:13:17.361696,14.57296025,.0008706,86.3722,276.1442,63.8838,296.3265,0,U,33777,999,92512,.41378E-3,.1893E-4,0 IRIDIUM 33 DEB,1997-051T,2026-09-12T00:11:58.639776,14.42831498,.0011188,86.3353,272.6075,357.8462,30.4171,0,U,33850,999,92092,.15326E-3,.531E-5,0 IRIDIUM 33 DEB,1997-051W,2026-09-11T22:34:42.957408,13.99969610,.0211743,85.9978,229.8904,117.3228,299.3595,0,U,33853,999,89167,.52973E-3,.965E-5,0 IRIDIUM 33 DEB,1997-051AD,2026-09-12T01:24:22.385088,14.70959329,.0011242,86.3755,265.8271,109.8330,304.2197,0,U,33860,999,92736,.56955E-3,.3516E-4,0 IRIDIUM 33 DEB,1997-051AF,2026-09-12T01:08:36.140928,14.74034047,.0047491,86.4046,276.4524,195.8849,193.5511,0,U,33862,999,92845,.26553E-3,.1803E-4,0 IRIDIUM 33 DEB,1997-051AK,2026-09-12T05:15:09.419328,14.26783399,.0110103,86.3053,337.2004,3.1449,25.2975,0,U,33866,999,90708,.63874E-3,.1667E-4,0 IRIDIUM 33 DEB,1997-051AP,2026-09-12T03:00:48.066048,14.47059692,.0019927,86.3728,300.9718,0.7070,27.4401,0,U,33870,999,92089,.29861E-3,.1109E-4,0 IRIDIUM 33 DEB,1997-051BA,2026-09-11T17:26:38.360832,14.63436433,.00513596,86.3883,347.3203,328.7171,191.6960,0,U,33881,999,91484,.10609652E-2,.5617E-4,0 IRIDIUM 33 DEB,1997-051BD,2026-09-12T00:41:23.485056,14.84311751,.0014836,86.3619,245.6200,77.1117,351.5293,0,U,33884,999,92893,.72187E-3,.6091E-4,0 IRIDIUM 33 DEB,1997-051BF,2026-09-12T03:00:21.147264,14.36317295,.0016109,86.3838,312.1605,75.3931,314.1679,0,U,33886,999,91976,.9004E-4,.283E-5,0 IRIDIUM 33 DEB,1997-051BG,2026-09-11T23:51:28.325376,14.37441180,.0008383,86.2994,245.6092,72.7934,340.8263,0,U,33887,999,92090,.84523E-4,.273E-5,0 IRIDIUM 33 DEB,1997-051BN,2026-09-12T02:30:43.422336,14.57535753,.0013854,86.3820,294.9177,255.8055,133.1910,0,U,33953,999,92283,.40736E-3,.1875E-4,0 IRIDIUM 33 DEB,1997-051BV,2026-09-12T05:27:03.910176,14.96062911,.0002355,86.2590,159.2928,95.3062,59.1781,0,U,33960,999,92944,.81456E-3,.9178E-4,0 IRIDIUM 33 DEB,1997-051CB,2026-09-12T01:30:25.424064,14.50576382,.0008067,86.3881,288.6465,27.4515,1.7831,0,U,33966,999,92403,.23667E-3,.948E-5,0 IRIDIUM 33 DEB,1997-051CE,2026-09-12T01:13:19.035264,14.50592877,.0004919,86.3390,258.8934,279.0216,81.0432,0,U,34071,999,92295,.30558E-3,.1218E-4,0 IRIDIUM 33 DEB,1997-051CL,2026-09-11T12:32:01.843584,14.68915363,.00106448,86.3813,290.8952,155.3261,328.7264,0,U,34077,999,92332,.6560766E-3,.3863E-4,0 IRIDIUM 33 DEB,1997-051CN,2026-09-11T23:46:30.553824,14.91375013,.000998,86.3699,243.4185,90.6119,324.2835,0,U,34079,999,93041,.10594E-2,.1061E-3,0 IRIDIUM 33 DEB,1997-051CX,2026-09-12T01:37:29.747424,15.09000213,.0000926,86.3597,263.1025,188.4710,241.5505,0,U,34088,999,92841,.15569E-2,.24684E-3,0 IRIDIUM 33 DEB,1997-051DA,2026-09-12T01:56:57.365664,14.99685239,.0026389,86.3449,299.7704,46.5335,313.8085,0,U,34091,999,91942,.23647E-2,.2948E-3,0 IRIDIUM 33 DEB,1997-051DG,2026-09-12T04:53:28.682016,14.36395850,.0079532,86.1955,240.4658,185.3970,174.6379,0,U,34097,999,91043,.55568E-3,.1706E-4,0 IRIDIUM 33 DEB,1997-051DY,2026-09-11T20:02:19.016448,14.44009706,.00489267,86.2129,210.6779,273.1130,86.4473,0,U,34145,999,91577,.59888005E-3,.2096E-4,0 IRIDIUM 33 DEB,1997-051DZ,2026-09-11T23:42:50.893056,14.50509641,.0028193,86.2811,228.9013,38.4268,34.4337,0,U,34146,999,92066,.54708E-3,.2172E-4,0 IRIDIUM 33 DEB,1997-051EN,2026-09-12T01:04:19.001568,14.39075374,.0030028,86.3474,291.6792,108.8813,251.5646,0,U,34159,999,91889,.18741E-3,.602E-5,0 IRIDIUM 33 DEB,1997-051ES,2026-09-11T23:40:41.147040,14.46005044,.0019277,86.3227,244.1545,317.4342,95.9656,0,U,34350,999,92241,.20603E-3,.755E-5,0 IRIDIUM 33 DEB,1997-051FJ,2026-09-12T01:08:50.394336,14.56333728,.0017192,86.3648,290.1924,302.9708,83.8947,0,U,34366,999,92157,.50657E-3,.2269E-4,0 IRIDIUM 33 DEB,1997-051FT,2026-09-11T23:01:38.258112,14.18436826,.0100787,86.4238,72.4761,339.7078,151.0201,0,U,34375,999,90584,.20888E-3,.471E-5,0 IRIDIUM 33 DEB,1997-051FU,2026-09-12T03:23:42.709056,14.67079349,.0022192,86.2904,243.0348,323.4516,36.5183,0,U,34376,999,92010,.9595E-3,.5427E-4,0 IRIDIUM 33 DEB,1997-051GB,2026-09-11T17:36:32.143968,15.12493346,.00063456,86.3752,244.0120,152.7679,22.0090,0,U,34486,999,93091,.15845497E-2,.27678E-3,0 IRIDIUM 33 DEB,1997-051GC,2026-09-11T10:53:19.598784,14.43559094,.00290281,86.3377,254.9229,311.3426,202.2986,0,U,34487,999,92182,.11067459E-3,.396E-5,0 IRIDIUM 33 DEB,1997-051GH,2026-09-11T08:57:40.102848,14.30150750,.01806752,86.4698,223.9524,77.7628,72.4202,0,U,34492,999,88950,.26514239E-2,.8217E-4,0 IRIDIUM 33 DEB,1997-051GN,2026-09-11T02:24:57.167424,14.28246801,.0079237,86.2752,295.9943,178.6413,211.0024,0,U,34497,999,90770,.31799072E-3,.839E-5,0 IRIDIUM 33 DEB,1997-051GZ,2026-09-11T17:58:13.194048,14.40072089,.00623162,86.3753,346.7028,357.8993,2.1934,0,U,34508,999,91236,.51180569E-3,.167E-4,0 IRIDIUM 33 DEB,1997-051HN,2026-09-11T18:30:12.284928,14.66402044,.00054433,86.3725,269.9862,72.7175,287.4634,0,U,34521,999,92470,.47315929E-3,.2638E-4,0 IRIDIUM 33 DEB,1997-051HS,2026-09-11T21:09:14.339808,14.43502255,.00021105,86.3691,290.2211,262.3654,272.3889,0,U,34525,999,92027,.17359951E-3,.607E-5,0 IRIDIUM 33 DEB,1997-051HW,2026-09-11T18:42:29.842848,14.40930098,.00060895,86.3584,278.9987,44.6612,315.5077,0,U,34529,999,92073,.10175016E-3,.346E-5,0 IRIDIUM 33 DEB,1997-051JF,2026-09-11T17:45:05.453280,14.43886028,.00361953,86.2716,245.8106,137.5628,278.7011,0,U,34538,999,91694,.33660184E-3,.1177E-4,0 IRIDIUM 33 DEB,1997-051JH,2026-09-11T19:18:32.580000,14.80432933,.00124918,86.3141,182.2039,310.5912,103.1047,0,U,34540,999,93055,.85869086E-3,.6595E-4,0 IRIDIUM 33 DEB,1997-051JZ,2026-09-11T17:22:41.939328,14.15149670,.01658636,86.3992,171.4405,155.9380,204.9672,0,U,34648,999,88818,.63150245E-3,.1419E-4,0 IRIDIUM 33 DEB,1997-051KC,2026-09-11T19:00:00.022752,14.29216459,.01314138,86.2830,23.9109,44.8049,316.3665,0,U,34651,999,89792,.94866337E-3,.2664E-4,0 IRIDIUM 33 DEB,1997-051KD,2026-09-11T08:27:42.837696,14.64085592,.00304493,86.3309,218.3721,84.3948,67.8233,0,U,34652,999,92470,.46967352E-3,.2505E-4,0 IRIDIUM 33 DEB,1997-051KM,2026-09-11T19:59:19.433184,14.56395550,.0009926,86.3722,278.1864,157.1021,17.2734,0,U,34690,999,92067,.47532716E-3,.213E-4,0 IRIDIUM 33 DEB,1997-051KT,2026-09-11T23:14:30.051168,14.81817304,.00458046,86.1769,258.3971,302.4194,85.8514,0,U,34696,999,90699,.23950623E-2,.19318E-3,0 IRIDIUM 33 DEB,1997-051LJ,2026-09-09T08:14:13.077888,14.41092082,.00179389,86.3336,276.5881,52.4953,5.0281,0,U,34765,999,91510,.20648299E-3,.686E-5,0 IRIDIUM 33 DEB,1997-051MH,2026-09-11T01:40:11.827776,14.53869747,.00167941,86.3899,293.4901,259.7992,128.4727,0,U,34833,999,91670,.31827054E-3,.136E-4,0 IRIDIUM 33 DEB,1997-051MQ,2026-09-11T02:46:49.230048,14.81212759,.00150031,86.3148,188.8051,333.6208,87.7553,0,U,34870,999,92937,.76565749E-3,.5996E-4,0 IRIDIUM 33 DEB,1997-051MY,2026-09-12T04:44:38.357088,14.68581688,.0026044,86.3319,203.7797,5.8498,59.6575,0,U,34896,999,91630,.48823E-3,.2872E-4,0 IRIDIUM 33 DEB,1997-051NF,2026-09-10T06:37:30.054720,14.63664113,.00730873,86.1296,241.1836,93.7678,329.9063,0,U,34926,999,90419,.1848146E-2,.10021E-3,0 IRIDIUM 33 DEB,1997-051NR,2026-09-11T13:43:49.769184,14.43003124,.00225046,86.3678,300.4147,48.3820,105.5964,0,U,34985,999,91108,.25017699E-3,.86E-5,0 IRIDIUM 33 DEB,1997-051NX,2026-09-10T23:25:14.768832,14.48697650,.00056008,86.3185,250.0614,258.3580,101.6995,0,U,35051,999,90936,.3198426E-3,.1225E-4,0 IRIDIUM 33 DEB,1997-051NY,2026-09-09T18:26:10.842720,14.38785923,.00091561,86.3245,264.2546,274.4861,85.5291,0,U,35052,999,91172,.10186938E-3,.333E-5,0 IRIDIUM 33 DEB,1997-051PM,2026-09-08T10:59:43.134432,14.46189285,.00141076,86.3862,307.5701,336.0194,24.0349,0,U,35297,999,74323,.31397396E-3,.1143E-4,0 IRIDIUM 33 DEB,1997-051PP,2026-09-12T00:37:25.408128,14.42850211,.0051654,86.2830,273.9897,279.9303,108.8206,0,U,35299,999,90269,.49462E-3,.1696E-4,0 IRIDIUM 33 DEB,1997-051QA,2026-09-11T07:23:12.242112,14.50898364,.00109044,86.3497,266.6117,275.0175,84.9785,0,U,35480,999,90982,.29782425E-3,.1196E-4,0 IRIDIUM 33 DEB,1997-051QE,2026-09-12T04:32:51.383904,15.23778202,.0012204,86.3412,221.8375,161.4879,198.6812,0,U,35484,999,66146,.19573E-2,.47429E-3,0 IRIDIUM 33 DEB,1997-051QJ,2026-09-10T12:14:04.426080,14.88342452,.0024573,86.3299,175.0231,148.4901,211.7802,0,U,35488,999,92302,.6319E-3,.5907E-4,0 IRIDIUM 33 DEB,1997-051QN,2026-09-11T15:03:57.091104,14.88651934,.00055967,86.3523,220.3774,321.8738,38.2091,0,U,35616,999,91626,.96724048E-3,.9049E-4,0 IRIDIUM 33 DEB,1997-051QQ,2026-09-11T05:30:01.608192,14.53224862,.00280866,86.3376,234.2142,177.7706,182.3631,0,U,35618,999,69350,.23681944E-3,.1008E-4,0 IRIDIUM 33 DEB,1997-051QS,2026-09-11T20:20:10.606272,14.43117006,.01297835,86.3827,101.7439,79.2944,282.2839,0,U,35620,999,63899,.20421203E-2,.7613E-4,0 IRIDIUM 33 DEB,1997-051QU,2026-09-11T09:24:50.227200,15.67532132,.00059169,86.1722,125.1205,169.8559,315.9857,0,U,35622,999,91508,.69949549E-2,.837429E-2,0 IRIDIUM 33 DEB,1997-051QX,2026-09-09T19:13:25.129056,14.32296597,.0104501,86.1836,263.8823,44.0263,77.7811,0,U,35625,999,69918,.89541E-3,.2586E-4,0 IRIDIUM 33 DEB,1997-051RA,2026-09-11T06:09:26.588736,14.71223399,.00140285,86.3506,247.0816,106.0299,254.2464,0,U,35628,999,90449,.64431838E-3,.4001E-4,0 IRIDIUM 33 DEB,1997-051RD,2026-09-11T00:03:19.786176,14.47893547,.0014593,86.3609,263.6711,296.9664,92.4446,0,U,35631,999,91136,.13269479E-3,.512E-5,0 IRIDIUM 33 DEB,1997-051RJ,2026-09-09T18:39:35.078112,14.23454613,.01489731,86.0968,261.2128,135.1619,350.4399,0,U,35680,999,64554,.75668084E-3,.1947E-4,0 IRIDIUM 33 DEB,1997-051RX,2026-09-12T02:50:34.328832,14.74237736,.001979,86.3314,201.5339,342.0671,17.9846,0,U,35744,999,91355,.62653E-3,.4176E-4,0 IRIDIUM 33 DEB,1997-051SF,2026-09-11T03:56:33.787680,14.89830852,.00067026,86.3369,203.9819,291.6913,68.3600,0,U,35797,999,91388,.89407638E-3,.8614E-4,0 IRIDIUM 33 DEB,1997-051SQ,2026-09-06T07:31:09.486336,14.59800011,.0011015,86.3381,262.5210,235.2177,124.7997,0,U,35806,999,90225,.41871E-3,.2022E-4,0 IRIDIUM 33 DEB,1997-051ST,2026-09-07T04:25:49.792512,14.80845514,.00142446,86.3261,212.4915,42.2278,318.0038,0,U,35809,999,90774,.77766934E-3,.6036E-4,0 IRIDIUM 33 DEB,1997-051SW,2026-09-11T13:51:29.532096,14.44066236,.00171933,86.3738,302.3416,0.2051,359.9154,0,U,35846,999,75265,.26617412E-3,.932E-5,0 IRIDIUM 33 DEB,1997-051SY,2026-09-10T07:11:45.686112,14.84530287,.000633,86.3825,253.2904,359.5367,0.5850,0,U,35848,999,70712,.87687E-3,.7421E-4,0 IRIDIUM 33 DEB,1997-051TA,2026-09-12T04:07:17.150592,14.84619386,.00079,86.3468,219.1459,347.5804,12.5224,0,U,35850,999,75407,.85809E-3,.7279E-4,0 IRIDIUM 33 DEB,1997-051TY,2026-09-11T04:40:48.495936,14.87507208,.00088344,86.3418,217.6396,343.8405,16.2537,0,U,35915,999,12128,.9427661E-3,.858E-4,0 IRIDIUM 33 DEB,1997-051UB,2026-09-09T12:05:25.080864,14.53167189,.00241857,86.4035,319.4190,348.0053,75.4303,0,U,35918,999,89137,.49009551E-3,.2057E-4,0 IRIDIUM 33 DEB,1997-051UN,2026-09-10T01:36:04.773024,15.25085809,.00153367,86.3422,181.9643,90.7928,269.5075,0,U,35929,999,91884,.20925073E-2,.52815E-3,0 IRIDIUM 33 DEB,1997-051US,2026-09-06T08:17:39.179040,14.42064579,.00204823,86.3360,280.4244,63.1249,357.1923,0,U,36011,999,68396,.18447373E-3,.627E-5,0 IRIDIUM 33 DEB,1997-051UT,2026-09-11T06:33:58.105152,14.21874851,.02220828,86.4405,197.3403,109.1434,253.3940,0,U,36012,999,69354,.18652329E-2,.5308E-4,0 IRIDIUM 33 DEB,1997-051VK,2026-09-10T02:21:47.455488,15.08708147,.00154898,86.3114,177.5606,134.5241,225.7264,0,U,36028,999,91199,.13790946E-2,.21747E-3,0 IRIDIUM 33 DEB,1997-051VM,2026-09-10T06:27:40.300416,14.47549738,.0016495,86.3136,249.5548,349.6876,10.3986,0,U,36080,999,51341,.32154E-3,.1204E-4,0 IRIDIUM 33 DEB,1997-051VQ,2026-09-11T07:35:36.985056,14.44067827,.0027816,86.3376,276.7228,48.1897,312.1674,0,U,36083,999,89382,.25443036E-3,.894E-5,0 IRIDIUM 33 DEB,1997-051VU,2026-09-06T12:36:39.206592,14.76704764,.00283088,86.2939,176.3251,326.4438,33.4987,0,U,36390,999,70210,.51546264E-3,.3655E-4,0 IRIDIUM 33 DEB,1997-051VZ,2026-09-11T10:05:16.967328,14.46672415,.00070819,86.3766,295.7071,313.2576,46.8035,0,U,36483,999,69087,.24574064E-3,.907E-5,0 IRIDIUM 33 DEB,1997-051WG,2026-09-11T17:31:57.843840,14.82115904,.00040798,86.3582,246.5975,126.6815,233.4783,0,U,36490,999,90521,.92433767E-3,.7379E-4,0 IRIDIUM 33 DEB,1997-051WK,2026-09-11T06:30:46.588320,14.68450382,.00124841,86.3508,250.1968,124.7931,235.4460,0,U,36493,999,78514,.59152265E-3,.345E-4,0 IRIDIUM 33 DEB,1997-051XG,2026-09-08T04:29:23.594496,14.28474092,.00747427,86.1720,218.9392,198.6623,161.1827,0,U,37136,999,68344,.32633251E-3,.861E-5,0 IRIDIUM 33 DEB,1997-051XH,2026-09-11T19:18:10.319040,14.53050322,.0023521,86.3469,284.3537,3.6471,356.4902,0,U,37548,999,69495,.38372E-3,.1611E-4,0 IRIDIUM 33 DEB,1997-051XK,2026-09-09T07:59:17.795040,14.70751463,.00005713,86.3705,263.5287,176.7099,183.4120,0,U,37550,999,90306,.71482617E-3,.4381E-4,0 IRIDIUM 33 DEB,1997-051XX,2026-09-11T20:38:12.365376,14.58799931,.00210152,86.3695,284.2619,260.1181,274.4300,0,U,37562,999,90307,.46662715E-3,.2208E-4,0 IRIDIUM 33 DEB,1997-051YA,2026-09-01T07:04:16.058784,14.52555598,.0010113,86.3434,255.0763,282.6567,77.3508,0,U,37565,999,69647,.25333E-3,.1056E-4,0 IRIDIUM 33 DEB,1997-051YD,2026-09-11T16:53:05.333280,14.54994219,.00746523,86.3329,46.7459,270.0920,89.1733,0,U,38017,999,65364,.29555479E-2,.13241E-3,0 IRIDIUM 33 DEB,1997-051YJ,2026-09-07T18:07:29.347392,14.42994717,.00415338,86.2621,258.4133,238.7118,121.0013,0,U,38022,999,73071,.48598531E-3,.1663E-4,0 IRIDIUM 33 DEB,1997-051YQ,2026-09-11T05:16:10.035840,14.46868659,.00255837,86.3213,241.7225,300.5028,59.3649,0,U,38028,999,69434,.1570619E-3,.592E-5,0 IRIDIUM 33 DEB,1997-051ZC,2026-09-11T10:47:31.374816,14.27682210,.00647302,86.2909,292.5076,34.3483,31.5718,0,U,38228,999,88672,.13553551E-3,.361E-5,0 IRIDIUM 33 DEB,1997-051ZR,2026-09-12T05:10:21.245088,14.56352725,.0002655,86.3201,229.7542,152.2014,207.9336,0,U,38241,999,64179,.38071E-3,.1708E-4,0 IRIDIUM 33 DEB,1997-051AAB,2026-09-05T07:12:53.645760,14.51761042,.00225102,86.3372,253.7660,274.0815,85.7817,0,U,38474,999,69184,.21426651E-3,.884E-5,0 IRIDIUM 33 DEB,1997-051AAE,2026-09-11T18:07:24.566016,13.62599120,.03979968,86.4087,4.4541,164.7636,196.5931,0,U,38477,999,58393,.39213631E-2,.5217E-4,0 IRIDIUM 33 DEB,1997-051AAJ,2026-09-07T20:28:02.269920,14.62084806,.00555895,85.9567,43.6300,355.5335,4.5371,0,U,39777,999,64111,.89436908E-3,.4614E-4,0 IRIDIUM 33 DEB,1997-051AAK,2026-09-11T12:40:54.020928,14.56125834,.00075061,86.3721,284.6099,166.6157,193.5252,0,U,39778,999,64660,.40808468E-3,.1821E-4,0 IRIDIUM 33 DEB,1997-051AAN,2026-09-10T11:11:01.142016,14.26007868,.0166009,86.3806,145.6195,121.6334,51.7841,0,U,39781,999,11973,.10755E-2,.2988E-4,0 IRIDIUM 33 DEB,1997-051ABJ,2026-09-07T17:04:36.225696,15.19177188,.00099054,86.3437,233.2818,108.7866,251.4452,0,U,40996,999,66542,.26352372E-2,.55838E-3,0 IRIDIUM 33 DEB,1997-051ABL,2026-09-10T09:29:57.956352,14.45923915,.0005233,86.3804,297.5529,247.7973,124.9574,0,U,40998,999,10606,.2258E-3,.823E-5,0 IRIDIUM 33 DEB,1997-051ABN,2026-09-11T06:25:56.152992,14.40414166,.02022366,86.2719,75.5009,100.0801,23.1832,0,U,46435,999,11832,.23602009E-2,.9581E-4,0 IRIDIUM 33 DEB,1997-051ABR,2026-09-06T06:35:11.177952,14.43393979,.00393656,86.2584,245.2183,164.2144,252.2692,0,U,46734,999,66868,.40057068E-3,.1384E-4,0 IRIDIUM 33 DEB,1997-051ABX,2026-09-11T08:55:13.719648,14.61951395,.00212265,86.3348,219.5743,113.2499,38.4241,0,U,46965,999,66249,.39851147E-3,.2024E-4,0 IRIDIUM 33 DEB,1997-051ACD,2026-09-08T03:01:58.528704,15.17437417,.00101696,86.3112,203.9900,69.6972,302.2384,0,U,46971,999,68289,.29133468E-2,.58748E-3,0 IRIDIUM 33 DEB,1997-051ACE,2026-09-11T09:26:18.057120,14.51702021,.00065554,86.3818,281.9314,273.2169,153.9862,0,U,46972,999,65527,.24156413E-3,.99E-5,0 IRIDIUM 33 DEB,1997-051ACG,2026-09-12T00:29:33.709920,14.49503615,.0083887,86.3018,345.3954,358.4793,1.6142,0,U,46974,999,61461,.11326E-2,.456E-4,0 IRIDIUM 33 DEB,1997-051ACM,2026-09-05T19:29:33.940896,15.23765769,.0007714,86.3134,281.1039,340.3269,19.7677,0,U,46979,999,39446,.23678E-2,.57352E-3,0